www.pogodaiklimat.ru

Погода и климат >> Архив погоды >> Россия >> Калининградская область >> Железнодорожный


ПОГОДА в Железнодорожном

  • Прогноз погоды в Железнодорожном
  • Монитор погоды в Железнодорожном

АРХИВ ПОГОДЫ в Железнодорожном

Время (UTC), дата Ветер
(напр.,м/с)
 
Видим.   Явления Облачность Т
(С)
Тd
(С)
f
(%)
Тe
(С)
Тes
(С)
Комфортность P
(гПа)
Po
(гПа)
Тmin
(С)
Tmax
(С)
R
(мм)
R24
(мм)
S
(см)
18 16.07 СЗ 2-3
{7}
21 км {ливн. осадки} 8/8 600 м
[Sc diur, vesp]
+14.5 +10.4 76 +14 +14 1008.8 1002.8 +17.7 9
21 16.07 Ю 1-1
{4}
10 км 8/8 600 м
[Sc]
+11.1 +10.1 94 +11 +11 1008.6 1002.6
00 17.07 штиль 0-1
{2}
10 км в посл. час ливневой дождь 9/9 300 м
[Cb cap]
+11.8 +11.0 95 +11 +11 1008.1 1002.1
03 17.07 Ю 1-1
{3}
18 км в посл. час ливневой дождь 10/10 300 м
[Cb cap]
+11.5 +10.9 96 +11 +11 1007.2 1001.2 +10.8 6
06 17.07 СЗ 2-3
{4}
22 км {ливн. осадки} н/о +13.6 +12.4 92 +13 +13 1007.6 1001.6 +10.8 6
09 17.07 С 4-7
{8}
24 км {ливн. осадки} 9/9 600 м
[Sc diur, vesp]
+15.9 +11.7 76 +15 +16 1008.7 1002.8
12 17.07 СЗ 5-9
{9}
27 км {ливн. осадки} 9/9 300 м
[Cb cap]
+17.8 +10.3 61 +17 +18 1009.4 1003.5
15 17.07 СЗ 5-7
{11}
27 км в посл. час ливневой дождь 9/9 600 м
[Cu med, cong]
+17.5 +13.9 79 +17 +17 1010.0 1004.1 0.1
18 17.07 СЗ 6-9
{10}
21 км {ливн. осадки} 8/5 600 м
[Sc Ac trans]
+16.4 +12.3 77 +15 +15 1010.8 1004.9 +19.3 0.1
21 17.07 СЗ 3-6
{10}
20 км 8/8 600 м
[Sc]
+13.9 +11.3 84 +13 +13 1011.6 1005.6
00 18.07 З 2-3
{6}
20 км 10/10 600 м
[Sc]
+12.8 +11.7 93 +12 +12 1012.0 1006.0
03 18.07 СЗ 3-5
{5}
22 км 10/10 600 м
[Sc]
+14.2 +12.4 89 +13 +13 1011.9 1005.9 +12.5
06 18.07 СЗ 3-4
{6}
23 км 9/9 600 м
[Sc]
+16.2 +13.3 83 +16 +16 1012.4 1006.4 +12.5
09 18.07 СЗ 4-6
{7}
25 км 8/5 600 м
[Cu med, cong Ci sp]
+18.7 +13.6 72 +19 +23 1012.8 1006.9
12 18.07 СЗ 4-7
{8}
30 км 5/4 600 м
[Cu med, cong Ci sp]
+21.0 +12.8 59 +24 +29 комфорт 1012.9 1007.0
15 18.07 СЗ 5-7
{8}
22 км 3/3 600 м
[Cu med, cong Ci sp]
+21.1 +12.5 58 +23 +25 комфорт 1013.0 1007.1
18 18.07 С 3-5
{8}
23 км 1/1 600 м
[Cu med, cong]
+18.0 +12.5 70 +18 +18 1013.4 1007.5 +21.9
21 18.07 ЮЗ 1-1
{5}
20 км ясно +12.7 +11.7 94 +13 +13 1014.4 1008.4
00 19.07 штиль 0-1
{2}
20 км ясно +11.0 +10.5 97 +10 +10 1014.7 1008.6
03 19.07 Ю 1-1
{1}
500 м туман ясно +8.5 +8.1 97 +8 +8 1014.9 1008.8 +8.4
06 19.07 Ю 1-1
{2}
8000 м дымка {туман} 3/3 600 м
[Sc]
+15.9 +13.7 87 +17 +21 1015.0 1009.0 +8.4
09 19.07 СВ 1-2
{3}
25 км 3/1 600 м
[Cu med, cong Ci fib]
+21.4 +13.7 61 +24 +38 комфорт 1014.8 1008.9
12 19.07 С 1-4
{5}
25 км 6/6 600 м
[Cu med, cong]
+24.8 +12.1 45 +26 +33 жарко 1014.0 1008.2
15 19.07 С 1-2
{4}
30 км 6/6 600 м
[Cu hum]
+25.3 +10.7 40 +26 +29 жарко 1013.4 1007.6
18 19.07 СВ 1-2
{5}
25 км 8/0
[Ci fib]
+21.8 +13.3 58 +24 +25 комфорт 1013.3 1007.5 +25.6
21 19.07 штиль 0-1
{3}
20 км 3/3 600 м
[Sc]
+16.4 +12.9 80 +16 +16 1014.2 1008.2
00 20.07 штиль 0-1
{2}
20 км 8/8 600 м
[Sc]
+14.6 +12.1 85 +14 +14 1014.3 1008.3
03 20.07 СВ 1-1
{2}
20 км 3/3 600 м
[Sc]
+12.9 +11.2 89 +13 +13 1014.3 1008.3 +12.8
06 20.07 Ю 1-2
{2}
22 км 3/3 600 м
[Sc Ci fib]
+19.1 +13.5 70 +21 +26 комфорт 1015.0 1009.1 +12.8
09 20.07 Ю 1-2
{3}
27 км ясно +24.4 +14.8 55 +27 +43 жарко 1015.4 1009.6
12 20.07 СЗ 2-4
{5}
30 км ясно +26.7 +12.7 42 +28 +42 жарко 1015.4 1009.6
15 20.07 СЗ 3-5
{8}
30 км ясно +26.7 +12.4 41 +28 +33 жарко 1015.5 1009.7
18 20.07 СВ 1-2
{5}
30 км ясно +24.8 +13.0 48 +27 +27 жарко 1015.5 1009.7 +27.8
21 20.07 штиль 0-1
{4}
20 км ясно +17.6 +14.4 82 +18 +18 1016.5 1010.6
00 21.07 ЮВ 2-2
{3}
10 км ясно +16.4 +13.7 84 +17 +17 1016.2 1010.2
03 21.07 ЮВ 2-3
{3}
17 км ясно +15.9 +14.1 89 +16 +16 1015.4 1009.4 +15.6
06 21.07 ЮВ 3-4
{5}
24 км 6/6 600 м
[Sc]
+22.2 +16.3 69 +26 +28 душно 1015.0 1009.2 +15.6
09 21.07 ЮВ 4-6
{7}
21 км 9/8 600 м
[Sc diur, vesp Ac trans]
+25.9 +16.2 55 +29 +31 душно 1014.7 1008.9
12 21.07 Ю 3-5
{7}
18 км в посл. час ливневой дождь 9/6 600 м
[Cu med, cong Ac trans]
+22.7 +18.1 75 +28 +31 душно 1015.5 1009.7
15 21.07 ЮЗ 2-4
{6}
20 км 8/6 600 м
[Sc Ac trans]
+25.5 +17.3 60 +29 +31 душно 1015.0 1009.2 0.0
18 21.07 СЗ 4-5
{11}
19 км 9/5 300 м
[Cb cap Ac trans]
+20.7 +15.8 74 +24 +24 комфорт 1016.7 1010.8 +26.7 0.0
21 21.07 ЮЗ 1-2
{6}
20 км 8/4 600 м
[Sc Ac trans]
+16.9 +15.2 90 +18 +18 1017.9 1011.9
00 22.07 Ю 1-1
{2}
20 км 6/0
[Ac trans]
+15.9 +14.9 94 +17 +17 1018.7 1012.7
03 22.07 Ю 1-1
{2}
7000 м дымка 8/0
[Ac trans]
+14.6 +14.0 96 +15 +15 1018.5 1012.5 +14.5
06 22.07 ЮЗ 1-3
{4}
12 км 9/9 600 м
[Sc]
+17.6 +15.7 89 +19 +19 1018.6 1012.6 +14.5
09 22.07 СЗ 5-9
{10}
30 км {ливн. осадки} 8/6 600 м
[Sc diur, vesp Ci sp]
+19.6 +14.4 72 +21 +24 комфорт 1019.3 1013.4
12 22.07 СЗ 5-11
{11}
30 км {ливн. осадки} 6/4 600 м
[Cu med, cong Ci sp]
+20.9 +12.1 57 +23 +27 комфорт 1020.1 1014.2
15 22.07 З 4-8
{12}
30 км 4/3 600 м
[Cu med, cong Ci sp]
+20.9 +9.6 48 +23 +25 комфорт 1019.8 1013.9 0.0
18 22.07 З 2-3
{11}
25 км 3/0
[Ci fib]
+17.8 +10.6 63 +18 +18 1019.6 1013.6 +21.8 0.0
21 22.07 З 1-2
{3}
20 км 3/0
[Ci fib]
+13.0 +10.5 85 +13 +13 1019.8 1013.7
00 23.07 ЮЗ 1-2
{2}
20 км ясно +11.4 +10.4 94 +11 +11 1019.3 1013.2
03 23.07 ЮЗ 1-1
{2}
18 км 5/3 600 м
[Sc Ci sp]
+11.1 +10.3 95 +11 +11 1018.7 1012.6 +10.5
06 23.07 З 2-3
{4}
28 км 8/8 600 м
[Sc Ac trans]
+17.3 +15.0 86 +18 +19 1018.7 1012.7 +10.5
09 23.07 СЗ 3-6
{7}
30 км 8/8 600 м
[Cu med, cong Ci fib]
+21.3 +14.0 63 +24 +26 комфорт 1018.6 1012.7
12 23.07 СЗ 4-7
{8}
30 км 8/8 600 м
[Cu med, cong]
+20.7 +13.9 65 +23 +25 комфорт 1018.5 1012.6
15 23.07 З 3-5
{8}
30 км 8/8 600 м
[Cu med, cong]
+20.5 +14.0 66 +23 +24 комфорт 1018.2 1012.3

 

Местоположение метеостанции Железнодорожный (Калининградская область, Россия): широта 54.37 долгота 21.30 высота над уровнем моря 50 м.

В архиве по умолчанию представлена погода в Железнодорожном за последнюю неделю. Архивные данные за месяц целиком и за предыдущие месяцы, начиная с января 2011 года, Вы можете получить, выбрав интересующий диапазон дат из раскрывающегося списка и нажав кнопку "Ввод!".


*Определитесь, кто Вы:
робот инопланетянин человек

Внимание! Время в таблицах - всемирное. Для получения местного времени необходимо прибавить поправку, которая равна 2 ч.

Смотрите также архив погоды в соседних городах и на ближайших метеорологических станциях:

Погода в Кентшине (Польша) (34 км)
Погода в Черняховске (Калининградская область, Россия) (43 км)
Погода в Калининграде (Калининградская область, Россия) (57 км)
Погода в Рыбном Порту (Калининградская область, Россия) (66 км)
Погода в Миколайках (Польша) (68 км)
Погода в Ольштыне (Польша) (88 км)
Погода в Советске (Калининградская область, Россия) (89 км)
Погода в Мамоново (Калининградская область, Россия) (89 км)
Погода в Виштынце (Калининградская область, Россия) (91 км)
Погода в Рыбачем (Калининградская область, Россия) (93 км)

Пояснения к столбцам:

Ветер - указаны скорость ветра в м/с - средняя за 10 мин, порывы в срок и между сроками (в фигурных скобках) и направление, откуда дует ветер: С - северный, СВ - северо-восточный, В - восточный, ЮВ - юго-восточный, Ю - южный, ЮЗ - юго-западный, З - западный, СЗ - северо-западный.
Видимость - горизонтальная дальность видимости в метрах или километрах. При видимости от 1 до 10 км при отсутствии осадков обычно наблюдается дымка, при ухудшении видимости до 1 км и менее - туман. В сухую погоду видимость может ухудшаться дымом, пылью или мглою.
Явления - указаны атмосферные явления, наблюдавшиеся в срок или в последний час перед сроком; фигурными скобками обозначены явления, наблюдавшиеся между сроками (за 1-3 часа до срока); квадратными скобками обозначены град или гололедные отложения с указанием их диаметра в мм.
Облачность - указаны через наклонную черту общая и нижняя облачность в баллах и высота нижней границы облаков в метрах; квадратными скобками обозначены формы облаков: Ci - перистые, Cs - перисто-слоистые, Cc - перисто-кучевые, Ac - высококучевые, As - высокослоистые, Sc - слоисто-кучевые, Ns - слоисто-дождевые, Cu - кучевые, Cb - кучево-дождевые. Подробнее классификацию облаков см. в Атласе облаков (PDF).
T - Температура воздуха - температура, измеренная на высоте 2 м над землей.
Td - Температура точки росы - температура, при понижении до которой содержащийся в воздухе водяной пар достигнет насыщения.
f - Относительная влажность воздуха - влажноcть воздуха, измеренная на высоте 2 м над землей.
Te - Эффективная температура - температура, которую ощущает одетый по сезону человек в тени. Характеристика душности погоды. При расчете учитывается влияние влажности воздуха и скорости ветра на теплоощущения человека.
Tes - Эффективная температура на солнце - температура, которую ощущает человек, с поправкой на солнечный нагрев. Характеристика знойности погоды. Зависит от высоты солнца над горизонтом, облачности и скорости ветра. Ночью, в пасмурную погоду, а также при ветре 12 м/с и более поправка равна нулю.
P - Атмосферное давление - приведенное к уровню моря атмосферное давление.
Po - Атмосферное давление - измеренное на уровне метеостанции атмосферное давление.
Tmin - Минимальная температура - минимум температуры воздуха на высоте 2 м над землей.
Tmax - Максимальная температура - максимум температуры воздуха на высоте 2 м над землей.
R - Количество осадков - Количество выпавших осадков за период времени, мм. При наведении курсора мыши на число - период времени, за который выпало указанное количество осадков.
R24 - Количество осадков - Количество выпавших осадков за 24 часа, мм.
S - Снежный покров - Высота снежного покрова, см. При наведении курсора мыши на число - состояние снежного покрова и степень покрытия местности в баллах.